Regional Weather Roundup
Issued by NWS

Home | Current Version | Previous Version | Graphics & Text | Print | Product List | Glossary On
Versions: 1 2 3 4 5 6 7 8 9 10 11 12 13 14 15 16 17 18 19 20 21 22 23 24 25 26 27 28 29 30 31 32 33 34 35 36 37 38 39 40 41 42 43 44 45 46 47 48 49 50
000
ASUS43 KIND 291359
RWRIN

WEATHER ROUNDUP FOR INDIANA
NATIONAL WEATHER SERVICE INDIANAPOLIS IN
1000 AM EDT SUN MAY 29 2016

NOTE: "FAIR" INDICATES FEW OR NO CLOUDS BELOW 12,000 FEET WITH NO
SIGNIFICANT WEATHER AND/OR OBSTRUCTIONS TO VISIBILITY.

* - STATION DOES NOT REPORT WEATHER SUCH AS PRECIPITATION OR FOG.

+ - STATION NOT QUALITY CONTROLLED BY THE NATIONAL WEATHER SERVICE.
    USE DATA WITH CAUTION...ESPECIALLY DEWPOINT AND RELATIVE
    HUMIDITY OBSERVATIONS.

INZ001>003-010>013-019-020-291500-
NORTHWEST INDIANA

CITY           SKY/WX    TMP DP  RH WIND       PRES   REMARKS
GARY /AIRPORT/ MOSUNNY   75  68  78 SW14      30.02R

$$

LMZ046-743>745-291500-
SOUTHERN LAKE MICHIGAN

STATION/POSITION TIME  TEMP    WIND        PRES    WAVE
                       AIR SEA DIR/SP/G            HT
                 (UTC) (F)     (DEG/KT/KT) (MB)    (FT)
BURNS HARBOR     1300   71     210/ 10/ 15 1016.6S
MICHIGAN CITY    1300   70     190/ 13/ 15   N/A
5NW MICH CITY    1300   62 57  210/  6/  8   N/A     1

$$

INZ004-005-014>016-021>024-291500-
NORTH CENTRAL INDIANA

CITY           SKY/WX    TMP DP  RH WIND       PRES   REMARKS
GOSHEN         MOSUNNY   75  63  66 SW10      30.05R
SOUTH BEND     MOSUNNY   73  62  68 SW9       30.04S

$$

INZ006>009-017-018-025>027-291500-
NORTHEAST INDIANA

CITY           SKY/WX    TMP DP  RH WIND       PRES   REMARKS
ANGOLA *+        N/A     77  72  83 SW8       30.05F
FORT WAYNE     PTSUNNY   77  67  71 SW12      30.07S

$$

INZ028-029-035-036-043>045-051>053-291500-
WEST CENTRAL INDIANA

CITY           SKY/WX    TMP DP  RH WIND       PRES   REMARKS
CRAWFORDSVL +  SUNNY     74  67  78 SW9       30.08S
LAFAYETTE      SUNNY     75  66  73 W8        30.06R
TERRE HAUTE    SUNNY     75  67  76 W7        30.09R

$$

INZ030>032-037>040-046>048-054>057-064-065-291500-
CENTRAL INDIANA

CITY           SKY/WX    TMP DP  RH WIND       PRES   REMARKS
COLUMBUS       SUNNY     75  68  78 SW9       30.11R
INDIANAPOLIS   MOSUNNY   76  68  76 W9        30.08R
-EAGLE CREEK   MOSUNNY   76  67  73 VRB3      30.08S
KOKOMO *+      SUNNY     77  66  69 W12       30.07R
SHELBYVILLE    MOSUNNY   78  67  68 S9        30.09R

$$

INZ033-034-041-042-049-050-058-059-291500-
EAST CENTRAL INDIANA

CITY           SKY/WX    TMP DP  RH WIND       PRES   REMARKS
MUNCIE         MOSUNNY   77  66  68 S9        30.09R

$$

INZ060-061-067>069-081>083-085>088-291500-
SOUTHWEST INDIANA

CITY           SKY/WX    TMP DP  RH WIND       PRES   REMARKS
EVANSVILLE     SUNNY     76  67  73 SW5       30.10F
HUNTINGBURG *+ SUNNY     75  68  78 SW8       30.12R

$$

INZ062-063-066-070>080-084-089>092-291500-
SOUTH CENTRAL AND SOUTHEAST INDIANA

CITY           SKY/WX    TMP DP  RH WIND       PRES   REMARKS
BLOOMINGTON    SUNNY     76  67  73 W7        30.10R
MADISON *+     SUNNY     77  64  65 SW6       30.15R
SEYMOUR +      SUNNY     79  68  69 SW8       30.11R

$$




USA.gov is the U.S. government's official web portal to all federal, state and local government web resources and services.